Weather History for Woodward, OK

Change the Weather History Date:

Tuesday, December 3, 2013

  Actual Average (KGAG) Record (KGAG)
Temperature  
Mean Temperature 54 °F -  
Max Temperature 73 °F 51 °F 75 °F (1975)
Min Temperature 35 °F 23 °F 12 °F (1978)
Degree Days  
Heating Degree Days 11    
Growing Degree Days 4 (Base 50)    
Moisture  
Dew Point 30 °F    
Average Humidity 45    
Maximum Humidity 81    
Minimum Humidity 14    
Precipitation  
Precipitation 0.00 in - - ()
Sea Level Pressure  
Sea Level Pressure 29.53 in    
Wind  
Wind Speed 7 mph (SSW)    
Max Wind Speed 14 mph    
Max Gust Speed 17 mph    
Visibility 10 miles    
Events      
Averages and records for this station are not official NWS values.
T = Trace of Precipitation, MM = Missing Value Source: NWS Daily Summary

Daily Weather History Graph

Daily Weather History Graph

Search for Another Location

Airport:

Trip Planner

Search our weather history database for the weather conditions in past years. The results will help you decide how hot, cold, wet, or windy it might be!

Date:

Astronomy

Dec. 03, 2013 Rise Set
Actual Time 7:33 AM CST 5:22 PM CST
Civil Twilight 7:04 AM CST 5:51 PM CST
Nautical Twilight 6:32 AM CST 6:23 PM CST
Astronomical Twilight 6:01 AM CST 6:54 PM CST
Moon 8:04 AM CST (12/3) 6:27 PM CST (12/3)
Length of Visible Light 10h 46m
Length of Day
9h 49m
New Moon, 1% of the Moon is Illuminated
Dec 3
New Moon
Dec 9
First Quarter
Dec 17
Full
Dec 25
Last Quarter
Jan 1
New

Hourly Weather History & Observations

Time (CST) Temp. Windchill Dew Point Humidity Pressure Visibility Wind Dir Wind Speed Gust Speed Precip Events Conditions
12:15 AM 50.0 °F - 30.2 °F 47% 29.61 in 10.0 mi SSW 8.1 mph - N/A   Clear
12:35 AM 46.4 °F 42.4 °F 30.2 °F 53% 29.60 in 10.0 mi South 8.1 mph - N/A   Clear
12:55 AM 50.0 °F - 30.2 °F 47% 29.59 in 10.0 mi South 6.9 mph - N/A   Clear
1:15 AM 50.0 °F - 30.2 °F 47% 29.58 in 10.0 mi South 5.8 mph - N/A   Clear
1:35 AM 50.0 °F - 30.2 °F 47% 29.57 in 10.0 mi South 6.9 mph - N/A   Clear
1:55 AM 48.2 °F - 30.2 °F 50% 29.57 in 10.0 mi SSW 4.6 mph - N/A   Clear
2:15 AM 44.6 °F 41.4 °F 30.2 °F 57% 29.57 in 10.0 mi SW 5.8 mph - N/A   Clear
2:35 AM 42.8 °F 37.5 °F 30.2 °F 61% 29.56 in 10.0 mi South 9.2 mph - N/A   Clear
2:55 AM 46.4 °F 42.9 °F 32.0 °F 57% 29.56 in 10.0 mi SSW 6.9 mph - N/A   Clear
3:15 AM 44.6 °F 39.7 °F 32.0 °F 61% 29.56 in 10.0 mi SW 9.2 mph - N/A   Clear
3:35 AM 41.0 °F 35.8 °F 30.2 °F 65% 29.56 in 10.0 mi SW 8.1 mph - N/A   Clear
3:55 AM 41.0 °F 35.2 °F 30.2 °F 65% 29.57 in 10.0 mi SW 9.2 mph - N/A   Clear
4:15 AM 41.0 °F 34.7 °F 30.2 °F 65% 29.57 in 10.0 mi SW 10.4 mph - N/A   Clear
4:35 AM 42.8 °F 37.0 °F 32.0 °F 66% 29.55 in 10.0 mi SW 10.4 mph - N/A   Clear
4:55 AM 42.8 °F 38.0 °F 32.0 °F 66% 29.54 in 10.0 mi SSW 8.1 mph - N/A   Clear
5:15 AM 41.0 °F 39.0 °F 30.2 °F 65% 29.55 in 10.0 mi SW 3.5 mph - N/A   Clear
5:35 AM 41.0 °F 39.0 °F 30.2 °F 65% 29.55 in 10.0 mi South 3.5 mph - N/A   Clear
5:55 AM 35.6 °F - 30.2 °F 81% 29.54 in 10.0 mi Calm Calm - N/A   Clear
6:15 AM 35.6 °F 29.9 °F 30.2 °F 81% 29.55 in 10.0 mi West 6.9 mph - N/A   Clear
6:35 AM 35.6 °F 31.7 °F 28.4 °F 75% 29.55 in 10.0 mi WSW 4.6 mph - N/A   Clear
6:55 AM 37.4 °F 34.9 °F 30.2 °F 75% 29.54 in 10.0 mi WSW 3.5 mph - N/A   Clear
7:15 AM 37.4 °F 34.9 °F 30.2 °F 75% 29.55 in 10.0 mi SW 3.5 mph - N/A   Clear
7:35 AM 35.6 °F 29.9 °F 30.2 °F 81% 29.55 in 10.0 mi SSE 6.9 mph - N/A   Clear
7:55 AM 37.4 °F 30.3 °F 32.0 °F 81% 29.54 in 10.0 mi SE 10.4 mph - N/A   Clear
8:15 AM 39.2 °F 33.0 °F 30.2 °F 70% 29.55 in 10.0 mi West 9.2 mph 17.3 mph N/A   Clear
8:35 AM 37.4 °F 33.8 °F 30.2 °F 75% 29.56 in 10.0 mi WSW 4.6 mph - N/A   Clear
8:55 AM 42.8 °F 37.5 °F 32.0 °F 66% 29.59 in 10.0 mi WSW 9.2 mph - N/A   Clear
9:15 AM 44.6 °F 40.2 °F 32.0 °F 61% 29.59 in 10.0 mi SW 8.1 mph - N/A   Clear
9:35 AM 48.2 °F - 32.0 °F 54% 29.58 in 10.0 mi SW 8.1 mph - N/A   Clear
9:55 AM 50.0 °F - 32.0 °F 50% 29.59 in 10.0 mi WSW 5.8 mph - N/A   Clear
10:15 AM 51.8 °F - 32.0 °F 47% 29.57 in 10.0 mi West 4.6 mph - N/A   Clear
10:35 AM 55.4 °F - 32.0 °F 41% 29.58 in 10.0 mi West 4.6 mph - N/A   Clear
10:55 AM 57.2 °F - 30.2 °F 36% 29.58 in 10.0 mi West 4.6 mph - N/A   Clear
11:15 AM 59.0 °F - 30.2 °F 34% 29.58 in 10.0 mi SW 6.9 mph - N/A   Clear
11:35 AM 60.8 °F - 30.2 °F 31% 29.56 in 10.0 mi WSW 4.6 mph - N/A   Clear
11:55 AM 62.6 °F - 28.4 °F 27% 29.55 in 10.0 mi SW 6.9 mph - N/A   Clear
12:15 PM 64.4 °F - 28.4 °F 26% 29.53 in 10.0 mi WSW 4.6 mph - N/A   Clear
12:35 PM 68.0 °F - 26.6 °F 21% 29.53 in 10.0 mi West 8.1 mph - N/A   Clear
12:55 PM 69.8 °F - 24.8 °F 18% 29.52 in 10.0 mi West 6.9 mph - N/A   Clear
1:15 PM 69.8 °F - 23.0 °F 17% 29.50 in 10.0 mi SW 4.6 mph - N/A   Clear
1:35 PM 71.6 °F - 23.0 °F 16% 29.49 in 10.0 mi West 5.8 mph - N/A   Clear
1:55 PM 71.6 °F - 23.0 °F 16% 29.50 in 10.0 mi WSW 8.1 mph - N/A   Clear
2:15 PM 71.6 °F - 23.0 °F 16% 29.49 in 10.0 mi West 11.5 mph - N/A   Clear
2:35 PM 73.4 °F - 21.2 °F 14% 29.49 in 10.0 mi West 8.1 mph - N/A   Clear
2:55 PM 73.4 °F - 23.0 °F 15% 29.48 in 10.0 mi West 6.9 mph - N/A   Clear
3:15 PM 73.4 °F - 23.0 °F 15% 29.48 in 10.0 mi SW 9.2 mph - N/A   Clear
3:35 PM 71.6 °F - 24.8 °F 17% 29.49 in 10.0 mi SSW 6.9 mph - N/A   Clear
3:55 PM 71.6 °F - 24.8 °F 17% 29.49 in 10.0 mi SSW 8.1 mph - N/A   Clear
4:15 PM 71.6 °F - 24.8 °F 17% 29.49 in 10.0 mi SSW 5.8 mph - N/A   Clear
4:35 PM 69.8 °F - 24.8 °F 18% 29.49 in 10.0 mi Calm Calm - N/A   Clear
4:55 PM 68.0 °F - 24.8 °F 20% 29.49 in 10.0 mi ESE 3.5 mph - N/A   Clear
5:15 PM 64.4 °F - 26.6 °F 24% 29.48 in 10.0 mi East 4.6 mph - N/A   Clear
5:35 PM 60.8 °F - 26.6 °F 27% 29.49 in 10.0 mi SE 5.8 mph - N/A   Clear
5:55 PM 59.0 °F - 26.6 °F 29% 29.49 in 10.0 mi ESE 5.8 mph - N/A   Clear
6:15 PM 57.2 °F - 30.2 °F 36% 29.49 in 10.0 mi ESE 5.8 mph - N/A   Clear
6:35 PM 53.6 °F - 32.0 °F 44% 29.49 in 10.0 mi SE 8.1 mph - N/A   Clear
6:55 PM 55.4 °F - 32.0 °F 41% 29.49 in 10.0 mi SSE 9.2 mph - N/A   Clear
7:15 PM 55.4 °F - 32.0 °F 41% 29.49 in 10.0 mi SSE 11.5 mph - N/A   Clear
7:35 PM 55.4 °F - 32.0 °F 41% 29.48 in 10.0 mi SSE 10.4 mph - N/A   Clear
7:55 PM 55.4 °F - 33.8 °F 44% 29.48 in 10.0 mi SSE 10.4 mph - N/A   Clear
8:15 PM 55.4 °F - 33.8 °F 44% 29.48 in 10.0 mi SSE 11.5 mph - N/A   Clear
8:35 PM 53.6 °F - 33.8 °F 47% 29.48 in 10.0 mi SSE 10.4 mph - N/A   Clear
8:55 PM 55.4 °F - 33.8 °F 44% 29.48 in 10.0 mi SSE 13.8 mph - N/A   Clear
9:15 PM 55.4 °F - 32.0 °F 41% 29.48 in 10.0 mi South 11.5 mph - N/A   Clear
9:35 PM 55.4 °F - 32.0 °F 41% 29.48 in 10.0 mi South 12.7 mph - N/A   Clear
9:55 PM 55.4 °F - 32.0 °F 41% 29.48 in 10.0 mi SSE 10.4 mph - N/A   Clear
10:15 PM 53.6 °F - 33.8 °F 47% 29.48 in 10.0 mi South 11.5 mph - N/A   Clear
10:35 PM 53.6 °F - 33.8 °F 47% 29.47 in 10.0 mi SSE 11.5 mph - N/A   Clear
10:55 PM 55.4 °F - 32.0 °F 41% 29.48 in 10.0 mi South 12.7 mph 16.1 mph N/A   Clear
11:15 PM 53.6 °F - 32.0 °F 44% 29.47 in 10.0 mi South 10.4 mph - N/A   Clear
11:35 PM 53.6 °F - 32.0 °F 44% 29.47 in 10.0 mi South 9.2 mph - N/A   Clear
11:55 PM 53.6 °F - 30.2 °F 41% 29.47 in 10.0 mi SSW 10.4 mph - N/A   Clear